STARLINK-34662

Last updated on Sat Aug 16 2025 00:02:05 GMT+0000 (Coordinated Universal Time)

1 64799U 25150K 25227.41844176 .00009908 00000+0 22950-3 0 9997 2 64799 70.0027 316.0059 0002290 245.1697 114.9246 15.42693115 5081

Satellite not in orbit

STARLINK-34662